This is the latest recevied weather packets stored in our database for station/object IN3XSV-15. If no packets are shown the sender has not sent any weather packets the latest 1 day(s).
| Time | Temp. | Humidity | Pressure | Rain* | Wind** | Luminosity | Snow |
|---|---|---|---|---|---|---|---|
| 1777987198 | 4.44° C | 94% | 853.8 hPa | 0 mm | 0.89 m/s, 180° | - | - |
| 1777986898 | 4.44° C | 94% | 853.7 hPa | 0 mm | 0.45 m/s, 180° | - | - |
| 1777986598 | 5° C | 94% | 853.8 hPa | 0 mm | 0.89 m/s, 202° | - | - |
| 1777986298 | 5° C | 94% | 853.7 hPa | 0 mm | 0.45 m/s, 180° | - | - |
| 1777985998 | 4.44° C | 94% | 853.8 hPa | 0 mm | 1.79 m/s, 180° | - | - |
| 1777985698 | 5° C | 94% | 853.7 hPa | 0 mm | 2.68 m/s, 180° | - | - |
| 1777985398 | 5° C | 94% | 853.8 hPa | 0 mm | 0 m/s | - | - |
| 1777985098 | 5° C | 94% | 853.9 hPa | 0 mm | 0 m/s | - | - |
| 1777984798 | 4.44° C | 94% | 853.8 hPa | 0 mm | 2.24 m/s, 180° | - | - |
| 1777984498 | 4.44° C | 94% | 853.7 hPa | 0 mm | 0.45 m/s, 180° | - | - |
| 1777984198 | 4.44° C | 94% | 853.8 hPa | 0 mm | 0 m/s | - | - |
| 1777983898 | 4.44° C | 94% | 853.9 hPa | 0 mm | 0 m/s | - | - |
| 1777983598 | 4.44° C | 94% | 853.8 hPa | 0 mm | 0 m/s | - | - |
| 1777983298 | 3.89° C | 94% | 853.9 hPa | 0 mm | 1.79 m/s, 180° | - | - |
| 1777982998 | 3.89° C | 95% | 853.9 hPa | 0 mm | 0.45 m/s, 180° | - | - |
| 1777982698 | 3.89° C | 94% | 853.9 hPa | 0 mm | 0.45 m/s, 180° | - | - |
| 1777982398 | 3.89° C | 94% | 853.8 hPa | 0 mm | 1.79 m/s, 180° | - | - |
| 1777982098 | 3.89° C | 94% | 853.7 hPa | 0 mm | 1.34 m/s, 180° | - | - |
| 1777981798 | 3.33° C | 94% | 853.7 hPa | 0 mm | 1.34 m/s, 180° | - | - |
| 1777981498 | 3.33° C | 94% | 853.9 hPa | 0 mm | 0 m/s | - | - |
| 1777981198 | 3.89° C | 94% | 853.8 hPa | 0 mm | 0.89 m/s, 180° | - | - |
| 1777980898 | 3.89° C | 94% | 853.9 hPa | 0 mm | 0.45 m/s, 157° | - | - |
| 1777980598 | 3.89° C | 95% | 853.8 hPa | 0 mm | 0.45 m/s, 180° | - | - |
| 1777980298 | 3.89° C | 94% | 853.8 hPa | 0 mm | 0.45 m/s, 180° | - | - |
| 1777979998 | 3.89° C | 94% | 853.8 hPa | 0 mm | 0.45 m/s, 180° | - | - |
* Rain latest hour (hover to see other rain measurements)
** Current wind speed in m/s (hover to see current wind gust speed)